Flag for India

Past Weather in Ahmedabad, Gujarat, India — Yesterday and Last 2 Weeks

Now
75 °F

Passing clouds.


Feels Like: 77 °F
Forecast: 95 / 70 °F
Wind: No wind

Location: Ahmadabad Airport
Current Time: Oct 26, 2020 at 4:51:58 am
Latest Report: Oct 26, 2020 at 4:00 am
Visibility: 2 mi
Pressure29.89 "Hg
Humidity: 69%
Dew Point: 64 °F
Location of AhmedabadLocation

Past Weather in Ahmedabad — Graph

°F

Ahmedabad Temperature Yesterday

Maximum temperature yesterday: 97 °F (at 1:00 pm)
Minimum temperature yesterday: 75 °F (at 12:00 am)
Average temperature yesterday: 85 °F

High & Low Weather Summary for the Past Weeks

 TemperatureHumidityPressure
High102 °F (Oct 12, 2:30 pm)100% (Oct 19, 7:30 am)29.92 "Hg (Oct 19, 7:30 am)
Low68 °F (Oct 23, 6:00 am)14% (Oct 23, 4:00 pm)29.59 "Hg (Oct 12, 3:00 pm)
Average87 °F57%29.73 "Hg
* Reported Oct 11 3:30 am — Oct 26 3:30 am, Ahmedabad. Weather by CustomWeather, © 2020

Note: Actual official high and low records may vary slightly from our data, if they occured in-between our weather recording intervals... More about our weather records

Ahmedabad Weather History for the Previous 24 Hours

Scroll right to see more
 ConditionsComfort  
Time TempWeatherWind HumidityBarometerVisibility
3:30 am
Mon, Oct 26
75 °FPassing clouds.2 mph69%29.89 "Hg2 mi
3:00 am75 °FHaze.2 mph74%29.89 "Hg2 mi
2:30 am75 °FHaze.2 mph74%29.89 "Hg2 mi
2:00 am77 °FHaze.2 mph69%29.89 "Hg2 mi
1:30 am77 °FHaze.No wind65%29.89 "Hg2 mi
1:00 am77 °FHaze.2 mph65%29.89 "Hg2 mi
12:30 am77 °FHaze.2 mph57%29.89 "Hg2 mi
12:00 am77 °FHaze.No wind69%29.92 "Hg2 mi
11:30 pm
Sun, Oct 25
77 °FHaze.No wind61%29.89 "Hg2 mi
11:00 pm81 °FHaze.No wind58%29.89 "Hg2 mi
10:30 pm81 °FHaze.No wind58%29.89 "Hg2 mi
10:00 pm79 °FHaze.No wind61%29.89 "Hg2 mi
9:30 pm79 °FHaze.3 mph70%29.89 "Hg2 mi
9:00 pm81 °FClear.No wind51%29.89 "Hg2 mi
8:30 pm84 °FClear.No wind43%29.86 "Hg2 mi
8:00 pm86 °FClear.No wind40%29.86 "Hg2 mi
7:30 pm86 °FClear.No wind40%29.86 "Hg2 mi
7:00 pm86 °FClear.No wind40%29.83 "Hg2 mi
6:30 pm88 °FClear.No wind38%29.83 "Hg2 mi
6:00 pm90 °FPassing clouds.3 mph36%29.83 "Hg2 mi
5:30 pm91 °FPassing clouds.7 mph36%29.83 "Hg3 mi
5:00 pm95 °FPassing clouds.7 mph30%29.83 "Hg3 mi
4:30 pm95 °FScattered clouds.7 mph28%29.80 "Hg4 mi
4:00 pm97 °FScattered clouds.7 mph27%29.80 "Hg4 mi
3:30 pm97 °FScattered clouds.6 mph27%29.80 "Hg4 mi
3:00 pm97 °FScattered clouds.5 mph27%29.83 "Hg4 mi
2:00 pm97 °FPassing clouds.6 mph23%29.83 "Hg4 mi
1:30 pm97 °FPassing clouds.6 mph23%29.83 "Hg4 mi
1:00 pm97 °FClear.8 mph23%29.86 "Hg4 mi
12:30 pm95 °FClear.7 mph25%29.86 "Hg4 mi
12:00 pm95 °FClear.8 mph23%29.89 "Hg4 mi
11:30 am93 °FClear.7 mph23%29.89 "Hg3 mi
11:00 am91 °FClear.7 mph32%29.89 "Hg3 mi
10:30 am91 °FPassing clouds.7 mph30%29.92 "Hg2 mi
10:00 am90 °FPassing clouds.6 mph36%29.92 "Hg2 mi
9:30 am88 °FScattered clouds.8 mph35%29.92 "Hg2 mi
9:00 am86 °FScattered clouds.7 mph43%29.89 "Hg2 mi
8:30 am82 °FScattered clouds.6 mph48%29.89 "Hg2 mi
8:00 am79 °FScattered clouds.7 mph61%29.89 "Hg2 mi
7:30 am77 °FScattered clouds.6 mph47%29.86 "Hg2 mi
7:00 am75 °FPassing clouds.No wind57%29.86 "Hg1 mi
6:30 am75 °FPassing clouds.3 mph61%29.83 "Hg1 mi
6:00 am75 °FPassing clouds.3 mph65%29.83 "Hg2 mi
5:00 am75 °FPassing clouds.No wind69%29.83 "Hg2 mi
4:30 am75 °FPassing clouds.No wind69%29.83 "Hg2 mi
4:00 am75 °FPassing clouds.No wind65%29.83 "Hg2 mi
Weather by CustomWeather, © 2020

See weather overview